# Tabular Observed and Forecast Hydrograph Information
#
# Location: Shasta River - Yreka (YREC1)
#
# File Generation Time: 05/06/2026 at 07:27 AM PDT
# Data Interval: 1 Hour
#
# Most Recent Date & Time of Maximum Observed: 05/01/2026 at 11:00 AM PDT
# Maximum Observed Stage: 3.27 Feet
# Maximum Observed Flow: 103 cfs
#
# Earliest Date & Time of Maximum Forecast: 05/06/2026 at 08:00 AM PDT
# Maximum Forecast Stage: 3.18 Feet
# Maximum Forecast Flow: 85 cfs
#
# OBSERVED
#
# Date & Time (Local) Stage (Feet) Flow (cfs) Trend Observed Status
# ---------------------------------------------------------------------------------
05/01/2026 07 AM PDT 3.25 99 Not Applicable
05/01/2026 08 AM PDT 3.25 99 0 Not Applicable
05/01/2026 09 AM PDT 3.26 101 + Not Applicable
05/01/2026 10 AM PDT 3.26 101 0 Not Applicable
05/01/2026 11 AM PDT 3.27 103 + Not Applicable
05/01/2026 12 PM PDT 3.26 101 - Not Applicable
05/01/2026 01 PM PDT 3.26 101 0 Not Applicable
05/01/2026 02 PM PDT 3.26 101 0 Not Applicable
05/01/2026 03 PM PDT 3.26 101 0 Not Applicable
05/01/2026 04 PM PDT 3.26 101 0 Not Applicable
05/01/2026 05 PM PDT 3.25 99 - Not Applicable
05/01/2026 06 PM PDT 3.25 99 0 Not Applicable
05/01/2026 07 PM PDT 3.23 95 - Not Applicable
05/01/2026 08 PM PDT 3.23 95 0 Not Applicable
05/01/2026 09 PM PDT 3.24 97 + Not Applicable
05/01/2026 10 PM PDT 3.23 95 - Not Applicable
05/01/2026 11 PM PDT 3.23 95 0 Not Applicable
05/02/2026 12 AM PDT 3.23 95 0 Not Applicable
05/02/2026 01 AM PDT 3.23 95 0 Not Applicable
05/02/2026 02 AM PDT 3.23 95 0 Not Applicable
05/02/2026 03 AM PDT 3.23 95 0 Not Applicable
05/02/2026 04 AM PDT 3.24 97 + Not Applicable
05/02/2026 05 AM PDT 3.24 97 0 Not Applicable
05/02/2026 06 AM PDT 3.24 97 0 Not Applicable
05/02/2026 07 AM PDT 3.24 97 0 Not Applicable
05/02/2026 08 AM PDT 3.24 97 0 Not Applicable
05/02/2026 09 AM PDT 3.24 97 0 Not Applicable
05/02/2026 10 AM PDT 3.24 97 0 Not Applicable
05/02/2026 11 AM PDT 3.25 99 + Not Applicable
05/02/2026 12 PM PDT 3.24 97 - Not Applicable
05/02/2026 01 PM PDT 3.24 97 0 Not Applicable
05/02/2026 02 PM PDT 3.23 95 - Not Applicable
05/02/2026 03 PM PDT 3.23 95 0 Not Applicable
05/02/2026 04 PM PDT 3.23 95 0 Not Applicable
05/02/2026 05 PM PDT 3.23 95 0 Not Applicable
05/02/2026 06 PM PDT 3.24 97 + Not Applicable
05/02/2026 07 PM PDT 3.25 99 + Not Applicable
05/02/2026 08 PM PDT 3.25 99 0 Not Applicable
05/02/2026 09 PM PDT 3.25 99 0 Not Applicable
05/02/2026 10 PM PDT 3.25 99 0 Not Applicable
05/02/2026 11 PM PDT 3.25 99 0 Not Applicable
05/03/2026 12 AM PDT 3.25 99 0 Not Applicable
05/03/2026 01 AM PDT 3.24 97 - Not Applicable
05/03/2026 02 AM PDT 3.25 99 + Not Applicable
05/03/2026 03 AM PDT 3.23 95 - Not Applicable
05/03/2026 04 AM PDT 3.23 95 0 Not Applicable
05/03/2026 05 AM PDT 3.22 93 - Not Applicable
05/03/2026 06 AM PDT 3.22 93 0 Not Applicable
05/03/2026 07 AM PDT 3.21 91 - Not Applicable
05/03/2026 08 AM PDT 3.22 93 + Not Applicable
05/03/2026 09 AM PDT 3.21 91 - Not Applicable
05/03/2026 10 AM PDT 3.21 91 0 Not Applicable
05/03/2026 11 AM PDT 3.21 91 0 Not Applicable
05/03/2026 12 PM PDT 3.21 91 0 Not Applicable
05/03/2026 01 PM PDT 3.21 91 0 Not Applicable
05/03/2026 02 PM PDT 3.21 91 0 Not Applicable
05/03/2026 03 PM PDT 3.21 91 0 Not Applicable
05/03/2026 04 PM PDT 3.21 91 0 Not Applicable
05/03/2026 05 PM PDT 3.21 91 0 Not Applicable
05/03/2026 06 PM PDT 3.21 91 0 Not Applicable
05/03/2026 07 PM PDT 3.20 89 - Not Applicable
05/03/2026 08 PM PDT 3.19 87 - Not Applicable
05/03/2026 09 PM PDT 3.19 87 0 Not Applicable
05/03/2026 10 PM PDT 3.18 85 - Not Applicable
05/03/2026 11 PM PDT 3.20 89 + Not Applicable
05/04/2026 12 AM PDT 3.20 89 0 Not Applicable
05/04/2026 01 AM PDT 3.19 87 - Not Applicable
05/04/2026 02 AM PDT 3.19 87 0 Not Applicable
05/04/2026 03 AM PDT 3.19 87 0 Not Applicable
05/04/2026 04 AM PDT 3.19 87 0 Not Applicable
05/04/2026 05 AM PDT 3.19 87 0 Not Applicable
05/04/2026 06 AM PDT 3.20 89 + Not Applicable
05/04/2026 07 AM PDT 3.20 89 0 Not Applicable
05/04/2026 08 AM PDT 3.20 89 0 Not Applicable
05/04/2026 09 AM PDT 3.20 89 0 Not Applicable
05/04/2026 10 AM PDT 3.20 89 0 Not Applicable
05/04/2026 11 AM PDT 3.20 89 0 Not Applicable
05/04/2026 12 PM PDT 3.20 89 0 Not Applicable
05/04/2026 01 PM PDT 3.21 91 + Not Applicable
05/04/2026 02 PM PDT 3.21 91 0 Not Applicable
05/04/2026 03 PM PDT 3.22 93 + Not Applicable
05/04/2026 04 PM PDT 3.22 93 0 Not Applicable
05/04/2026 05 PM PDT 3.22 93 0 Not Applicable
05/04/2026 06 PM PDT 3.23 95 + Not Applicable
05/04/2026 07 PM PDT 3.24 97 + Not Applicable
05/04/2026 08 PM PDT 3.24 97 0 Not Applicable
05/04/2026 09 PM PDT 3.24 97 0 Not Applicable
05/04/2026 10 PM PDT 3.24 97 0 Not Applicable
05/04/2026 11 PM PDT 3.25 99 + Not Applicable
05/05/2026 12 AM PDT 3.24 97 - Not Applicable
05/05/2026 01 AM PDT 3.23 95 - Not Applicable
05/05/2026 02 AM PDT 3.22 93 - Not Applicable
05/05/2026 03 AM PDT 3.22 93 0 Not Applicable
05/05/2026 04 AM PDT 3.21 91 - Not Applicable
05/05/2026 05 AM PDT 3.21 91 0 Not Applicable
05/05/2026 06 AM PDT 3.22 93 + Not Applicable
05/05/2026 07 AM PDT 3.22 93 0 Not Applicable
05/05/2026 08 AM PDT 3.21 91 - Not Applicable
05/05/2026 09 AM PDT 3.21 91 0 Not Applicable
05/05/2026 10 AM PDT 3.22 93 + Not Applicable
05/05/2026 11 AM PDT 3.22 93 0 Not Applicable
05/05/2026 12 PM PDT 3.22 93 0 Not Applicable
05/05/2026 01 PM PDT 3.21 91 - Not Applicable
05/05/2026 02 PM PDT 3.21 91 0 Not Applicable
05/05/2026 03 PM PDT 3.21 91 0 Not Applicable
05/05/2026 04 PM PDT 3.21 91 0 Not Applicable
05/05/2026 05 PM PDT 3.20 89 - Not Applicable
05/05/2026 06 PM PDT 3.20 89 0 Not Applicable
05/05/2026 07 PM PDT 3.20 89 0 Not Applicable
05/05/2026 08 PM PDT 3.20 89 0 Not Applicable
05/05/2026 09 PM PDT 3.20 89 0 Not Applicable
05/05/2026 10 PM PDT 3.20 89 0 Not Applicable
05/05/2026 11 PM PDT 3.20 89 0 Not Applicable
05/06/2026 12 AM PDT 3.21 91 + Not Applicable
05/06/2026 01 AM PDT 3.21 91 0 Not Applicable
05/06/2026 02 AM PDT 3.20 89 - Not Applicable
05/06/2026 03 AM PDT 3.20 89 0 Not Applicable
05/06/2026 04 AM PDT 3.19 87 - Not Applicable
05/06/2026 05 AM PDT 3.18 85 - Not Applicable
05/06/2026 06 AM PDT 3.18 85 0 Not Applicable
05/06/2026 07 AM PDT 3.18 85 0 Not Applicable
#
# FORECAST
#
# Date & Time (Local) Stage (Feet) Flow (cfs) Trend Forecast Status
# ---------------------------------------------------------------------------------
05/06/2026 08 AM PDT 3.18 85 Not Applicable
05/06/2026 09 AM PDT 3.18 85 0 Not Applicable
05/06/2026 10 AM PDT 3.18 85 0 Not Applicable
05/06/2026 11 AM PDT 3.18 85 0 Not Applicable
05/06/2026 12 PM PDT 3.18 85 0 Not Applicable
05/06/2026 01 PM PDT 3.18 85 0 Not Applicable
05/06/2026 02 PM PDT 3.18 85 0 Not Applicable
05/06/2026 03 PM PDT 3.18 85 0 Not Applicable
05/06/2026 04 PM PDT 3.18 85 0 Not Applicable
05/06/2026 05 PM PDT 3.18 85 0 Not Applicable
05/06/2026 06 PM PDT 3.17 84 - Not Applicable
05/06/2026 07 PM PDT 3.17 84 0 Not Applicable
05/06/2026 08 PM PDT 3.17 84 0 Not Applicable
05/06/2026 09 PM PDT 3.17 84 0 Not Applicable
05/06/2026 10 PM PDT 3.17 84 0 Not Applicable
05/06/2026 11 PM PDT 3.17 84 0 Not Applicable
05/07/2026 12 AM PDT 3.17 84 0 Not Applicable
05/07/2026 01 AM PDT 3.17 84 0 Not Applicable
05/07/2026 02 AM PDT 3.17 84 0 Not Applicable
05/07/2026 03 AM PDT 3.17 84 0 Not Applicable
05/07/2026 04 AM PDT 3.17 84 0 Not Applicable
05/07/2026 05 AM PDT 3.17 84 0 Not Applicable
05/07/2026 06 AM PDT 3.17 84 0 Not Applicable
05/07/2026 07 AM PDT 3.17 84 0 Not Applicable
05/07/2026 08 AM PDT 3.17 84 0 Not Applicable
05/07/2026 09 AM PDT 3.17 84 0 Not Applicable
05/07/2026 10 AM PDT 3.17 84 0 Not Applicable
05/07/2026 11 AM PDT 3.17 84 0 Not Applicable
05/07/2026 12 PM PDT 3.17 84 0 Not Applicable
05/07/2026 01 PM PDT 3.17 84 0 Not Applicable
05/07/2026 02 PM PDT 3.17 84 0 Not Applicable
05/07/2026 03 PM PDT 3.17 84 0 Not Applicable
05/07/2026 04 PM PDT 3.17 84 0 Not Applicable
05/07/2026 05 PM PDT 3.17 84 0 Not Applicable
05/07/2026 06 PM PDT 3.17 84 0 Not Applicable
05/07/2026 07 PM PDT 3.16 82 - Not Applicable
05/07/2026 08 PM PDT 3.16 82 0 Not Applicable
05/07/2026 09 PM PDT 3.16 82 0 Not Applicable
05/07/2026 10 PM PDT 3.16 82 0 Not Applicable
05/07/2026 11 PM PDT 3.16 82 0 Not Applicable
05/08/2026 12 AM PDT 3.16 82 0 Not Applicable
05/08/2026 01 AM PDT 3.16 82 0 Not Applicable
05/08/2026 02 AM PDT 3.16 82 0 Not Applicable
05/08/2026 03 AM PDT 3.16 82 0 Not Applicable
05/08/2026 04 AM PDT 3.16 82 0 Not Applicable
05/08/2026 05 AM PDT 3.16 82 0 Not Applicable
05/08/2026 06 AM PDT 3.16 82 0 Not Applicable
05/08/2026 07 AM PDT 3.16 82 0 Not Applicable
05/08/2026 08 AM PDT 3.16 82 0 Not Applicable
05/08/2026 09 AM PDT 3.16 82 0 Not Applicable
05/08/2026 10 AM PDT 3.16 82 0 Not Applicable
05/08/2026 11 AM PDT 3.16 82 0 Not Applicable
05/08/2026 12 PM PDT 3.16 82 0 Not Applicable
05/08/2026 01 PM PDT 3.16 82 0 Not Applicable
05/08/2026 02 PM PDT 3.16 82 0 Not Applicable
05/08/2026 03 PM PDT 3.16 82 0 Not Applicable
05/08/2026 04 PM PDT 3.15 80 - Not Applicable
05/08/2026 05 PM PDT 3.15 80 0 Not Applicable
05/08/2026 06 PM PDT 3.15 80 0 Not Applicable
05/08/2026 07 PM PDT 3.15 80 0 Not Applicable
05/08/2026 08 PM PDT 3.15 80 0 Not Applicable
05/08/2026 09 PM PDT 3.15 80 0 Not Applicable
05/08/2026 10 PM PDT 3.15 80 0 Not Applicable
05/08/2026 11 PM PDT 3.15 80 0 Not Applicable
05/09/2026 12 AM PDT 3.15 80 0 Not Applicable
05/09/2026 01 AM PDT 3.15 80 0 Not Applicable
05/09/2026 02 AM PDT 3.15 80 0 Not Applicable
05/09/2026 03 AM PDT 3.15 80 0 Not Applicable
05/09/2026 04 AM PDT 3.15 80 0 Not Applicable
05/09/2026 05 AM PDT 3.15 80 0 Not Applicable
05/09/2026 06 AM PDT 3.15 80 0 Not Applicable
05/09/2026 07 AM PDT 3.15 80 0 Not Applicable
05/09/2026 08 AM PDT 3.15 80 0 Not Applicable
05/09/2026 09 AM PDT 3.15 80 0 Not Applicable
05/09/2026 10 AM PDT 3.15 80 0 Not Applicable
05/09/2026 11 AM PDT 3.15 80 0 Not Applicable
05/09/2026 12 PM PDT 3.15 80 0 Not Applicable
05/09/2026 01 PM PDT 3.15 80 0 Not Applicable
05/09/2026 02 PM PDT 3.15 80 0 Not Applicable
05/09/2026 03 PM PDT 3.15 80 0 Not Applicable
05/09/2026 04 PM PDT 3.15 80 0 Not Applicable
05/09/2026 05 PM PDT 3.15 80 0 Not Applicable
05/09/2026 06 PM PDT 3.14 78 - Not Applicable
05/09/2026 07 PM PDT 3.14 78 0 Not Applicable
05/09/2026 08 PM PDT 3.14 78 0 Not Applicable
05/09/2026 09 PM PDT 3.14 78 0 Not Applicable
05/09/2026 10 PM PDT 3.14 78 0 Not Applicable
05/09/2026 11 PM PDT 3.14 78 0 Not Applicable
05/10/2026 12 AM PDT 3.14 78 0 Not Applicable
05/10/2026 01 AM PDT 3.14 78 0 Not Applicable
05/10/2026 02 AM PDT 3.14 78 0 Not Applicable
05/10/2026 03 AM PDT 3.14 78 0 Not Applicable
05/10/2026 04 AM PDT 3.14 78 0 Not Applicable
05/10/2026 05 AM PDT 3.14 78 0 Not Applicable
05/10/2026 06 AM PDT 3.14 78 0 Not Applicable
05/10/2026 07 AM PDT 3.14 78 0 Not Applicable
05/10/2026 08 AM PDT 3.14 78 0 Not Applicable
05/10/2026 09 AM PDT 3.14 78 0 Not Applicable
05/10/2026 10 AM PDT 3.14 78 0 Not Applicable
05/10/2026 11 AM PDT 3.14 78 0 Not Applicable
05/10/2026 12 PM PDT 3.14 78 0 Not Applicable
05/10/2026 01 PM PDT 3.13 76 - Not Applicable
05/10/2026 02 PM PDT 3.13 76 0 Not Applicable
05/10/2026 03 PM PDT 3.13 76 0 Not Applicable
05/10/2026 04 PM PDT 3.13 76 0 Not Applicable
05/10/2026 05 PM PDT 3.13 76 0 Not Applicable
05/10/2026 06 PM PDT 3.13 76 0 Not Applicable
05/10/2026 07 PM PDT 3.13 76 0 Not Applicable
05/10/2026 08 PM PDT 3.13 76 0 Not Applicable
05/10/2026 09 PM PDT 3.13 76 0 Not Applicable
05/10/2026 10 PM PDT 3.13 76 0 Not Applicable
05/10/2026 11 PM PDT 3.13 76 0 Not Applicable
05/11/2026 12 AM PDT 3.13 76 0 Not Applicable
05/11/2026 01 AM PDT 3.13 76 0 Not Applicable
05/11/2026 02 AM PDT 3.13 76 0 Not Applicable
05/11/2026 03 AM PDT 3.13 76 0 Not Applicable
05/11/2026 04 AM PDT 3.13 76 0 Not Applicable
05/11/2026 05 AM PDT 3.13 76 0 Not Applicable
#
# NOTE 1: Stages are rounded to the nearest hundredth (.01) of a foot.
# NOTE 2: Flows are rounded to the nearest (1) cfs.
# NOTE 3: Trends are determined using hourly change in unrounded stage and flow.
# NOTE 4: Maximum Values are determined using unrounded stage and flow.
|